Tracking 21094 objects as of 12-Aug-2020
HD Live streaming from Space Station
objects crossing your sky now
Track the most recent launched group of Starlink satellites

CARTOSAT-1

Track CARTOSAT-1 now!
10-day predictions
CARTOSAT-1 is classified as:


NORAD ID: 28649
Int'l Code: 2005-017A
Perigee: 624.6 km
Apogee: 625.0 km
Inclination: 97.8 °
Period: 97.1 minutes
Semi major axis: 6995 km
RCS: 4.7551 m2 (large)
Launch date: May 5, 2005
Source: India (IND)
Launch site: SRIHARIKOTA (SRI)

Remote sensing and mapping, land use, forest cover, river flow assessments.
aabbcc
Your satellite tracking list
Your tracking list is empty




NASA's NSSDC Master Catalog

Two Line Element Set (TLE):
1 28649U 05017A   20224.80694406 -.00000024 +00000-0 +33419-5 0  9991
2 28649 097.8093 292.5106 0000275 148.9416 211.1814 14.83705897826690
Source of the keplerian elements: AFSPC